Weather History for KAPF - November, 2013

Change the Weather History Date:

Saturday, November 16, 2013

  Actual Average Record
Temperature  
Mean Temperature 78 °F 72 °F  
Max Temperature 84 °F 81 °F 91 °F (1988)
Min Temperature 71 °F 63 °F 40 °F (1969)
Degree Days  
Heating Degree Days 0 0  
Month to date heating degree days 0 0  
Since 1 July heating degree days 0 1  
Cooling Degree Days 13 7  
Month to date cooling degree days 177 138  
Year to date cooling degree days 3818 3733  
Growing Degree Days 28 (Base 50)    
Moisture  
Dew Point 68 °F    
Average Humidity 74    
Maximum Humidity 87    
Minimum Humidity 61    
Precipitation  
Precipitation T in 0.06 in 2.18 in (2002)
Month to date precipitation T 1.29  
Year to date precipitation 48.22 49.69  
Snow  
Snow 0.00 in - - ()
Month to date snowfall 0.0  
Since 1 July snowfall 0.0  
Since 1 September snowfall 0.0  
Snow Depth 0.00 in    
Sea Level Pressure  
Sea Level Pressure 30.04 in    
Wind  
Wind Speed 9 mph (East)    
Max Wind Speed 17 mph    
Max Gust Speed 22 mph    
Visibility 10 miles    
Events Rain    
T = Trace of Precipitation, MM = Missing Value Source: NWS Daily Summary

Daily Weather History Graph

Daily Weather History Graph

Search for Another Location

Airport or City:

Trip Planner

Search our weather history database for the weather conditions in past years. The results will help you decide how hot, cold, wet, or windy it might be!

Date:

Astronomy

Nov. 16, 2013 Rise Set
Actual Time 6:46 AM EST 5:37 PM EST
Civil Twilight 6:22 AM EST 6:01 PM EST
Nautical Twilight 5:54 AM EST 6:29 PM EST
Astronomical Twilight 5:26 AM EST 6:57 PM EST
Moon 5:07 PM EST (11/16) 5:46 AM EST (11/16)
Length of Visible Light 11h 39m
Length of Day
10h 50m
Waxing Gibbous, 99% of the Moon is Illuminated
Nov 16
Waxing Gibbous
Nov 17
Full
Nov 25
Last Quarter
Dec 2
New
Dec 9
First Quarter

Hourly Weather History & Observations

Time (EST) Temp. Heat Index Dew Point Humidity Pressure Visibility Wind Dir Wind Speed Gust Speed Precip Events Conditions
12:53 AM 73.0 °F - 69.1 °F 87% 30.05 in 10.0 mi ENE 6.9 mph - N/A   Mostly Cloudy
1:53 AM 73.0 °F - 68.0 °F 84% 30.04 in 10.0 mi NNE 8.1 mph - N/A   Overcast
2:53 AM 73.0 °F - 66.9 °F 81% 30.03 in 10.0 mi ENE 6.9 mph - N/A   Mostly Cloudy
3:53 AM 72.0 °F - 66.9 °F 84% 30.02 in 10.0 mi ENE 6.9 mph - N/A   Mostly Cloudy
4:53 AM 73.0 °F - 68.0 °F 84% 30.01 in 10.0 mi East 6.9 mph - N/A   Partly Cloudy
5:53 AM 72.0 °F - 69.1 °F 91% 30.02 in 8.0 mi East 5.8 mph - 0.00 in Rain Light Rain
6:53 AM 72.0 °F - 69.1 °F 91% 30.04 in 10.0 mi ENE 5.8 mph - 0.00 in   Scattered Clouds
7:53 AM 73.0 °F - 70.0 °F 90% 30.05 in 9.0 mi East 5.8 mph - N/A   Partly Cloudy
8:53 AM 75.0 °F - 71.1 °F 87% 30.07 in 9.0 mi East 6.9 mph - N/A   Partly Cloudy
9:53 AM 77.0 °F - 71.1 °F 82% 30.08 in 9.0 mi ESE 8.1 mph - N/A   Mostly Cloudy
10:53 AM 80.1 °F 83.2 °F 70.0 °F 71% 30.07 in 10.0 mi ESE 10.4 mph 19.6 mph N/A   Mostly Cloudy
11:53 AM 82.0 °F 85.5 °F 69.1 °F 65% 30.05 in 10.0 mi ESE 12.7 mph - N/A   Clear
12:53 PM 84.0 °F 88.4 °F 70.0 °F 63% 30.03 in 10.0 mi East 10.4 mph - N/A   Mostly Cloudy
1:53 PM 82.0 °F 85.9 °F 70.0 °F 67% 30.01 in 10.0 mi East 13.8 mph - N/A   Overcast
2:53 PM 80.1 °F 83.6 °F 71.1 °F 74% 30.00 in 8.0 mi ENE 11.5 mph - N/A   Overcast
3:53 PM 80.1 °F 82.1 °F 66.0 °F 62% 30.00 in 10.0 mi East 16.1 mph 21.9 mph N/A   Overcast
4:53 PM 78.1 °F - 64.9 °F 64% 30.01 in 10.0 mi ENE 12.7 mph - N/A   Mostly Cloudy
5:53 PM 75.9 °F - 63.0 °F 64% 30.02 in 10.0 mi East 11.5 mph - N/A   Partly Cloudy
6:53 PM 73.0 °F - 64.0 °F 73% 30.03 in 10.0 mi East 9.2 mph - N/A   Clear
7:53 PM 72.0 °F - 64.0 °F 76% 30.05 in 10.0 mi East 8.1 mph - N/A   Clear
8:53 PM 73.0 °F - 66.0 °F 79% 30.06 in 10.0 mi East 8.1 mph - N/A   Clear
9:53 PM 73.0 °F - 66.9 °F 81% 30.06 in 10.0 mi East 8.1 mph - N/A   Mostly Cloudy
10:53 PM 73.0 °F - 66.9 °F 81% 30.06 in 10.0 mi East 8.1 mph - N/A   Mostly Cloudy
11:53 PM 72.0 °F - 66.9 °F 84% 30.04 in 10.0 mi East 9.2 mph - N/A   Clear